Middlesboro, KY

4:39 PM CDT on July 24, 2017 (GMT -0500)
Middlesboro

Weather History for K1A6 - September, 2013

Change the Weather History Date:

Sunday, September 29, 2013

  Actual Average (KLOZ) Record (KLOZ)
Temperature  
Mean Temperature 62 °F -  
Max Temperature 71 °F 73 °F 88 °F (1986)
Min Temperature 53 °F 50 °F 37 °F (1962)
Degree Days  
Heating Degree Days 3    
Growing Degree Days 12 (Base 50)    
Moisture  
Dew Point 57 °F    
Average Humidity 86    
Maximum Humidity 100    
Minimum Humidity 62    
Precipitation  
Precipitation 0.00 in - - ()
Sea Level Pressure  
Sea Level Pressure 30.12 in    
Wind  
Wind Speed 0 mph (East)    
Max Wind Speed 6 mph    
Max Gust Speed -    
Visibility 9 miles    
Events Fog    
Averages and records for this station are not official NWS values.
T = Trace of Precipitation, MM = Missing Value Source: NWS Daily Summary

Daily Weather History Graph

Daily Weather History Graph

Search for Another Location

Airport or City:

Trip Planner

Search our weather history database for the weather conditions in past years. The results will help you decide how hot, cold, wet, or windy it might be!

Date:

Astronomy

Sep. 29, 2013 Rise Set
Actual Time 6:28 AM CDT 6:21 PM CDT
Civil Twilight 6:02 AM CDT 6:46 PM CDT
Nautical Twilight 5:32 AM CDT 7:16 PM CDT
Astronomical Twilight 5:02 AM CDT 7:46 PM CDT
Moon 1:16 AM CDT (9/29) 3:09 PM CDT (9/29)
Length of Visible Light 12h 43m
Length of Day
11h 52m
Waning Crescent, 27% of the Moon is Illuminated
Sep 29
Waning Crescent
Oct 4
New
Oct 11
First Quarter
Oct 18
Full
Oct 26
Last Quarter

Hourly Weather History & Observations

Time (CDT) Temp. Dew Point Humidity Pressure Visibility Wind Dir Wind Speed Gust Speed Precip Events Conditions
12:15 AM 56.3 °F 55.8 °F 98% 30.16 in 5.0 mi Calm Calm - N/A   Clear
12:35 AM 55.4 °F 55.2 °F 99% 30.16 in 4.0 mi Calm Calm - N/A   Mostly Cloudy
12:55 AM 55.9 °F 55.9 °F 100% 30.16 in 1.0 mi Calm Calm - N/A   Overcast
1:15 AM 55.6 °F 55.6 °F 100% 30.17 in 0.5 mi Calm Calm - N/A Fog Fog
1:35 AM 55.0 °F 55.0 °F 100% 30.16 in 0.8 mi Calm Calm - N/A   Overcast
1:55 AM 54.9 °F 54.9 °F 100% 30.16 in 7.0 mi Calm Calm - N/A   Scattered Clouds
2:15 AM 54.9 °F 54.5 °F 99% 30.16 in 10.0 mi Calm Calm - N/A   Clear
2:35 AM 54.9 °F 54.5 °F 99% 30.15 in 10.0 mi Calm Calm - N/A   Clear
2:55 AM 54.5 °F 54.5 °F 100% 30.15 in 7.0 mi Calm Calm - N/A   Clear
3:15 AM 54.7 °F 54.3 °F 99% 30.15 in 7.0 mi Calm Calm - N/A   Scattered Clouds
3:35 AM 55.4 °F 54.7 °F 97% 30.15 in 10.0 mi Calm Calm - N/A   Overcast
3:55 AM 54.5 °F 54.3 °F 99% 30.15 in 5.0 mi Calm Calm - N/A   Scattered Clouds
4:15 AM 54.5 °F 54.3 °F 99% 30.15 in 2.5 mi Calm Calm - N/A   Mostly Cloudy
4:35 AM 54.3 °F 53.8 °F 98% 30.15 in 5.0 mi Calm Calm - N/A   Mostly Cloudy
4:55 AM 54.5 °F 53.8 °F 97% 30.16 in 7.0 mi Calm Calm - N/A   Scattered Clouds
5:15 AM 54.1 °F 53.8 °F 99% 30.16 in 5.0 mi Calm Calm - N/A   Scattered Clouds
5:35 AM 54.0 °F 53.6 °F 99% 30.17 in 7.0 mi Calm Calm - N/A   Scattered Clouds
5:55 AM 53.8 °F 53.4 °F 99% 30.17 in 5.0 mi Calm Calm - N/A   Mostly Cloudy
6:15 AM 53.6 °F 53.2 °F 99% 30.17 in 5.0 mi Calm Calm - N/A   Scattered Clouds
6:35 AM 53.8 °F 53.4 °F 99% 30.17 in 5.0 mi Calm Calm - N/A   Scattered Clouds
6:55 AM 54.0 °F 53.6 °F 99% 30.17 in 7.0 mi Calm Calm - N/A   Mostly Cloudy
7:15 AM 54.0 °F 53.6 °F 99% 30.17 in 5.0 mi Calm Calm - N/A   Overcast
7:35 AM 55.4 °F 54.5 °F 97% 30.17 in 7.0 mi Calm Calm - N/A   Overcast
8:15 AM 57.2 °F 55.8 °F 95% 30.17 in 10.0 mi Calm Calm - N/A   Overcast
8:35 AM 59.0 °F 56.8 °F 93% 30.17 in 10.0 mi Calm Calm - N/A   Overcast
8:55 AM 60.8 °F 56.7 °F 86% 30.17 in 10.0 mi Calm Calm - N/A   Overcast
9:15 AM 62.8 °F 57.0 °F 81% 30.17 in 10.0 mi Calm Calm - N/A   Overcast
9:35 AM 63.0 °F 55.6 °F 77% 30.17 in 10.0 mi Calm Calm - N/A   Overcast
9:55 AM 64.0 °F 56.1 °F 75% 30.17 in 10.0 mi Calm Calm - N/A   Overcast
10:15 AM 65.5 °F 57.2 °F 75% 30.17 in 10.0 mi Calm Calm - N/A   Mostly Cloudy
10:35 AM 64.8 °F 57.0 °F 76% 30.17 in 10.0 mi Calm Calm - N/A   Mostly Cloudy
10:55 AM 66.0 °F 57.6 °F 74% 30.16 in 10.0 mi East 3.5 mph - N/A   Overcast
11:15 AM 67.6 °F 57.4 °F 70% 30.16 in 10.0 mi ESE 4.6 mph - N/A   Mostly Cloudy
11:35 AM 68.2 °F 57.0 °F 67% 30.15 in 10.0 mi SE 4.6 mph - N/A   Mostly Cloudy
11:55 AM 70.0 °F 58.3 °F 66% 30.14 in 10.0 mi Calm Calm - N/A   Overcast
12:15 PM 70.3 °F 58.5 °F 66% 30.13 in 10.0 mi SE 3.5 mph - N/A   Overcast
12:35 PM 69.6 °F 57.7 °F 66% 30.13 in 10.0 mi Calm Calm - N/A   Overcast
12:55 PM 70.7 °F 58.1 °F 64% 30.12 in 10.0 mi South 5.8 mph - N/A   Overcast
1:15 PM 71.4 °F 58.1 °F 63% 30.11 in 10.0 mi Calm Calm - N/A   Overcast
1:35 PM 70.5 °F 57.0 °F 62% 30.10 in 10.0 mi Calm Calm - N/A   Overcast
1:55 PM 70.2 °F 58.3 °F 66% 30.10 in 10.0 mi NNW 3.5 mph - N/A   Overcast
2:15 PM 69.1 °F 57.4 °F 66% 30.09 in 10.0 mi Calm Calm - N/A   Overcast
2:35 PM 68.5 °F 58.3 °F 70% 30.09 in 10.0 mi Calm Calm - N/A   Overcast
2:55 PM 69.1 °F 58.3 °F 68% 30.08 in 10.0 mi Calm Calm - N/A   Mostly Cloudy
3:15 PM 69.6 °F 58.6 °F 68% 30.08 in 10.0 mi ESE 4.6 mph - N/A   Mostly Cloudy
3:35 PM 69.8 °F 57.9 °F 66% 30.08 in 10.0 mi East 4.6 mph - N/A   Overcast
3:55 PM 69.8 °F 58.5 °F 67% 30.08 in 10.0 mi NE 3.5 mph - N/A   Overcast
4:15 PM 69.4 °F 57.4 °F 65% 30.08 in 10.0 mi Calm Calm - N/A   Mostly Cloudy
4:35 PM 68.7 °F 59.0 °F 71% 30.08 in 10.0 mi Calm Calm - N/A   Overcast
4:55 PM 68.2 °F 59.7 °F 74% 30.07 in 10.0 mi Calm Calm - N/A   Scattered Clouds
5:15 PM 67.6 °F 60.3 °F 77% 30.07 in 10.0 mi Calm Calm - N/A   Clear
5:35 PM 67.1 °F 61.2 °F 81% 30.07 in 10.0 mi Calm Calm - N/A   Clear
5:55 PM 66.2 °F 60.4 °F 82% 30.06 in 10.0 mi Calm Calm - N/A   Clear
6:15 PM 65.1 °F 60.3 °F 84% 30.06 in 10.0 mi Calm Calm - N/A   Clear
6:35 PM 64.4 °F 61.0 °F 89% 30.04 in 10.0 mi Calm Calm - N/A   Clear
6:55 PM 63.3 °F 61.0 °F 92% 30.05 in 10.0 mi Calm Calm - N/A   Clear
7:15 PM 63.5 °F 60.8 °F 91% 30.05 in 10.0 mi Calm Calm - N/A   Clear
7:35 PM 62.8 °F 60.8 °F 93% 30.06 in 10.0 mi Calm Calm - N/A   Clear
7:55 PM 62.1 °F 60.1 °F 93% 30.07 in 10.0 mi Calm Calm - N/A   Clear
8:15 PM 61.7 °F 59.9 °F 94% 30.07 in 10.0 mi Calm Calm - N/A   Clear
8:35 PM 61.3 °F 59.2 °F 93% 30.08 in 10.0 mi Calm Calm - N/A   Clear
8:55 PM 60.6 °F 59.2 °F 95% 30.08 in 10.0 mi Calm Calm - N/A   Clear
9:15 PM 60.6 °F 59.0 °F 94% 30.08 in 10.0 mi Calm Calm - N/A   Scattered Clouds
9:35 PM 60.4 °F 58.6 °F 94% 30.09 in 10.0 mi Calm Calm - N/A   Scattered Clouds
9:55 PM 59.5 °F 58.3 °F 96% 30.09 in 10.0 mi NW 3.5 mph - N/A   Scattered Clouds
10:15 PM 59.2 °F 58.1 °F 96% 30.08 in 10.0 mi Calm Calm - N/A   Clear
10:35 PM 59.0 °F 57.7 °F 96% 30.08 in 10.0 mi Calm Calm - N/A   Clear
10:55 PM 58.3 °F 57.6 °F 97% 30.08 in 10.0 mi Calm Calm - N/A   Clear
11:15 PM 57.9 °F 56.8 °F 96% 30.09 in 10.0 mi Calm Calm - N/A   Clear
11:35 PM 57.2 °F 56.5 °F 97% 30.09 in 10.0 mi Calm Calm - N/A   Clear
11:55 PM 56.7 °F 56.3 °F 99% 30.09 in 10.0 mi Calm Calm - N/A   Scattered Clouds